Temperature
7 7 7 7 7 7 7 7 7 7 7 7 7 8 8 8 8 8 8 8 8 8 8 8 8 8 8 8 8 8 8 7 7 7 7 7 7 7
6 6 7 7 7 7 7 7 7 6 6 7 7 7 7 7 7 7 7 8 8 8 7 7 7 7 7 7 7 7 7 7 7 7 7 7 7 7
6 6 6 6 6 6 6 6 6 6 6 6 7 7 7 7 7 7 7 7 7 7 7 7 7 7 7 7 7 7 7 7 7 7 7 7 7 6
6 6 6 6 6 6 6 6 6 6 6 6 6 6 6 6 6 6 6 6 6 7 7 7 6 6 6 6 6 6 6 6 7 6 6 6 6 6
5 5 5 5 5 5 5 5 5 5 5 5 5 6 6 6 6 6 6 6 6 6 6 6 6 6 6 6 6 6 6 6 6 6 6 6 6 6
4 5 5 5 5 5 5 5 5 5 5 5 5 5 5 5 5 5 5 5 6 6 5 6 6 6 5 5 5 5 5 5 5 5 5 5 5 5
4 4 4 4 5 4 4 4 4 4 4 4 4 4 4 5 5 5 5 5 5 5 5 5 5 5 5 5 5 5 5 5 5 5 5 5 5 5
3 4 4 4 4 4 4 4 4 4 4 4 4 4 4 4 4 4 4 4 4 4 4 5 5 4 5 5 4 4 5 4 4 4 4 4 4 4
3 3 3 3 3 3 3 4 4 4 4 4 4 4 4 4 4 4 4 4 4 4 4 4 4 4 4 4 4 4 4 4 4 4 4 4 3 3
2 2 2 2 2 2 2 3 3 3 3 3 3 4 4 4 4 4 4 4 3 3 3 3 3 3 3 3 3 3 3 3 3 3 3 3 3 3
2 1 1 2 2 2 2 2 2 3 3 3 3 3 3 3 3 3 3 3 3 3 3 3 3 3 3 3 3 3 3 3 3 3 3 2 2 2
1 1 1 1 1 1 2 2 2 2 2 2 2 2 2 2 2 2 2 2 2 2 2 2 2 2 2 2 2 2 2 2 2 2 2 2 2 1
0 1 1 1 1 1 1 1 1 1 1 2 2 2 1 2 2 2 2 2 2 2 2 1 2 1 1 1 1 1 1 1 1 1 1 1 1 1
-0 -0 -0 -0 0 1 1 1 1 1 1 1 1 1 1 1 1 1 1 1 1 1 1 1 1 1 1 1 1 1 1 1 1 1 1 0 0 0
-1 -1 -1 -1 -0 -0 0 0 0 0 0 0 0 0 -0 -0 0 0 0 0 0 0 0 0 1 1 1 0 0 -0 0 0 0 0 -0 -0 -0 -0
-1 -1 -1 -1 -1 -1 -0 -0 -0 -0 -0 -0 -0 -1 -1 -1 -1 -1 -0 -0 -0 -0 -0 -0 -0 -0 -0 -0 -0 -1 -1 -1 -1 -1 -1 -1 -1 -1
-2 -2 -2 -2 -1 -1 -1 -1 -1 -1 -1 -1 -1 -1 -1 -1 -1 -1 -1 -1 -1 -1 -1 -1 -1 -1 -1 -1 -1 -1 -1 -1 -1 -1 -1 -1 -1 -1
-2 -2 -2 -2 -2 -2 -2 -2 -2 -1 -1 -1 -2 -2 -2 -2 -2 -2 -2 -2 -2 -2 -2 -2 -2 -1 -2 -2 -2 -2 -2 -2 -2 -2 -2 -2 -2 -2
-3 -3 -3 -3 -3 -3 -2 -2 -2 -2 -2 -2 -2 -2 -2 -2 -2 -2 -2 -2 -2 -2 -2 -2 -2 -2 -2 -3 -3 -3 -2 -2 -2 -2 -2 -3 -3 -3
-3 -3 -3 -3 -3 -3 -3 -3 -3 -3 -2 -2 -2 -2 -2 -3 -3 -3 -3 -3 -3 -3 -3 -3 -3 -3 -3 -3 -3 -3 -3 -3 -3 -3 -3 -3 -3 -3
-4 -4 -3 -3 -3 -3 -3 -3 -3 -3 -3 -3 -3 -3 -3 -3 -3 -3 -3 -3 -3 -3 -3 -3 -3 -3 -3 -3 -4 -4 -4 -4 -4 -3 -3 -4 -4 -4
-4 -4 -4 -4 -4 -4 -4 -4 -4 -3 -3 -3 -3 -3 -3 -3 -3 -3 -3 -4 -4 -4 -4 -4 -4 -4 -4 -4 -4 -4 -4 -4 -4 -4 -4 -4 -4 -4
-4 -4 -4 -4 -4 -4 -4 -4 -4 -4 -4 -4 -4 -4 -3 -3 -4 -4 -4 -4 -4 -4 -4 -4 -4 -4 -4 -4 -5 -5 -5 -5 -5 -4 -4 -4 -4 -4
Wind_Speed
8 9 8 7 7 8 7 7 7 8 9 6 5 5 6 6 9 9 9 13 16 17 17 17 18 18 18 18 17 17 17 17 17 18 19 20 20 20
7 9 9 8 7 7 7 7 8 8 9 6 5 5 5 5 8 8 9 12 14 16 17 17 17 17 17 17 17 16 17 17 17 18 19 19 20 20
8 9 10 9 7 7 7 7 8 7 10 8 5 5 6 6 6 6 7 8 8 13 15 15 16 16 16 15 15 15 15 16 16 17 18 18 18 18
9 9 9 8 9 7 7 7 7 7 8 10 7 5 6 6 6 6 6 6 6 10 12 13 14 15 15 14 14 14 14 14 15 15 16 16 16 17
9 9 9 8 9 8 7 8 7 7 7 8 7 5 4 4 4 5 5 5 5 7 10 12 13 13 13 13 13 13 12 12 13 12 13 14 15 15
8 8 8 9 9 9 8 8 7 7 6 7 7 5 5 4 4 4 5 4 5 4 6 7 9 10 11 12 12 11 12 12 12 12 11 11 12 13
8 8 9 9 11 9 8 7 7 7 7 7 7 6 5 4 5 4 5 4 4 4 4 4 5 5 6 9 10 11 12 12 12 11 11 10 10 11
8 8 8 9 10 11 12 11 9 9 8 8 7 7 7 6 5 5 4 4 5 4 4 5 4 5 5 5 8 10 11 11 11 11 10 9 9 10
8 8 8 8 9 8 9 9 10 11 11 9 9 8 8 7 6 6 6 5 6 3 3 5 3 5 4 5 7 8 9 9 8 9 8 8 7 8
7 7 8 8 8 7 6 6 6 7 8 7 7 7 6 5 6 6 5 4 2 2 2 4 3 3 3 3 6 7 7 7 7 7 7 7 6 6
7 7 7 7 9 7 6 6 6 5 5 5 5 4 4 4 4 2 2 2 3 3 2 2 3 3 2 3 3 3 5 5 6 6 6 6 5 5
6 6 8 9 9 8 5 6 7 5 3 3 3 4 3 3 3 4 4 4 3 3 3 2 3 2 2 2 2 2 2 3 4 4 4 4 5 3
6 6 6 10 9 9 7 6 7 5 3 3 2 2 2 2 2 2 2 3 3 3 2 2 2 2 2 2 2 2 1 2 2 3 3 4 4 3
6 5 5 9 9 9 7 6 6 4 2 2 2 2 2 2 1 1 1 1 1 2 2 2 2 2 2 2 2 2 1 1 1 2 2 2 3 3
5 7 8 8 8 5 5 6 4 3 2 2 2 2 2 1 1 1 2 2 3 3 2 1 1 1 1 2 2 1 1 1 1 1 1 1 2 2
5 6 7 7 5 5 5 4 2 2 2 2 2 1 1 1 0 0 0 1 2 3 4 3 2 1 1 1 1 2 2 2 1 1 1 1 1 2
5 4 3 3 3 3 3 3 2 1 1 1 2 1 1 0 0 1 0 1 0 1 2 3 4 3 3 1 1 2 1 1 1 1 1 1 2 2
5 3 3 3 3 3 2 2 2 1 0 1 1 1 1 1 1 1 1 1 1 1 1 1 1 2 2 3 2 1 1 1 1 1 1 1 3 2
4 3 3 3 3 3 2 2 2 2 1 0 1 1 1 1 1 1 1 1 1 1 1 1 1 1 1 2 3 2 0 0 1 1 1 1 3 4
2 2 3 3 2 2 2 2 2 1 1 0 1 1 2 2 2 1 1 1 1 1 1 2 2 1 1 1 1 2 3 0 1 1 1 1 2 3
3 3 3 3 2 2 2 2 2 2 1 1 0 1 1 2 2 1 1 2 2 1 1 1 1 2 1 1 2 2 3 3 1 1 1 1 2 2
3 3 3 3 3 2 2 2 2 2 1 1 1 1 1 2 2 2 2 2 1 1 1 0 1 1 1 2 2 1 2 4 4 4 2 2 1 1
4 3 3 3 3 2 2 1 1 1 1 1 1 1 1 2 2 2 2 2 2 2 2 1 2 2 2 2 2 1 2 3 3 3 3 4 3 3
Wind_Direction
248 247 247 249 247 242 238 234 243 261 259 248 243 238 230 229 232 231 232 234 231 232 234 236 240 243 246 247 248 249 249 249 247 246 247 249 248 247
251 251 249 246 246 243 239 237 235 246 261 254 249 254 239 244 240 238 237 239 234 233 235 237 238 239 241 243 244 247 249 249 248 244 245 246 245 244
259 254 252 248 248 245 242 238 236 238 257 267 255 251 240 237 241 238 240 235 235 235 235 236 237 238 240 242 243 245 249 250 250 246 245 244 242 242
262 262 260 257 251 249 246 244 242 239 249 263 264 253 250 241 240 238 241 237 235 236 236 239 239 239 238 238 240 242 246 248 248 247 243 241 240 240
264 261 262 257 254 252 248 248 250 252 250 256 264 262 261 255 254 257 243 240 242 239 235 239 239 238 238 238 238 240 241 243 244 243 241 240 240 239
269 268 267 257 253 254 251 247 246 247 250 254 258 262 263 259 249 253 257 243 245 244 241 243 241 238 238 238 238 238 237 240 243 244 240 239 241 240
272 269 268 267 262 257 257 249 243 244 245 249 254 260 257 250 244 242 254 249 250 236 236 241 237 237 237 241 239 237 233 236 241 242 240 239 239 239
276 277 275 268 267 261 260 255 248 245 245 242 247 251 254 253 251 247 242 253 258 226 228 246 230 236 239 230 239 235 234 236 239 239 238 240 241 237
274 277 282 278 275 263 259 257 254 253 248 244 244 246 247 242 239 243 239 242 255 239 230 250 240 243 250 248 247 236 236 238 239 237 236 235 236 239
275 274 275 278 272 270 257 255 256 256 253 250 247 249 252 247 236 240 244 246 267 272 231 242 252 263 273 263 254 233 234 238 240 233 231 233 238 240
283 280 278 277 281 283 262 253 257 261 269 269 274 273 264 258 246 224 223 224 261 264 241 226 248 268 272 270 275 253 239 239 241 234 229 227 229 234
294 286 282 284 285 285 262 249 251 256 263 281 287 300 287 269 261 237 224 233 248 248 237 211 231 231 262 277 279 291 271 255 253 237 235 237 235 228
295 295 291 293 290 286 278 259 257 261 244 239 251 267 286 285 280 276 259 236 236 246 225 203 217 224 226 262 292 289 264 254 256 254 257 250 240 224
291 296 299 305 301 295 282 271 271 271 240 229 242 252 267 277 292 334 12 1 323 254 217 205 213 210 215 252 266 291 290 262 233 230 236 253 251 244
299 302 307 311 312 304 294 288 278 246 223 225 237 245 250 220 170 57 48 49 35 24 29 356 154 174 185 226 248 258 276 271 231 210 220 224 224 217
310 309 313 313 314 319 320 310 284 236 219 220 218 214 196 166 154 286 319 59 39 13 16 28 54 130 175 269 240 259 253 227 229 223 225 233 226 211
312 311 310 311 320 324 326 325 319 278 217 185 171 170 166 151 15 20 21 17 43 333 1 17 38 58 74 87 266 249 236 214 212 227 228 245 253 234
322 320 320 316 314 318 325 330 341 344 240 167 163 166 169 162 95 53 49 60 89 80 44 20 48 40 32 26 6 255 248 212 216 213 217 228 261 257
333 328 323 319 319 324 326 326 325 335 343 148 165 163 150 138 125 111 89 80 75 69 46 21 24 70 64 321 330 340 212 254 269 239 242 228 247 260
341 326 320 324 326 322 325 328 332 347 6 54 160 159 148 139 136 136 133 122 113 91 49 24 21 25 190 225 263 319 338 268 226 257 284 296 285 284
338 336 331 333 336 334 336 336 336 344 358 13 110 133 131 128 132 133 136 128 113 105 77 354 340 19 50 70 62 1 349 356 341 226 232 289 306 303
339 339 339 337 340 339 338 340 349 358 8 18 44 96 116 132 137 136 136 134 120 103 76 24 4 39 48 79 78 30 3 4 8 360 315 242 227 233
336 339 338 336 335 336 338 346 354 349 360 16 33 76 112 117 120 126 127 123 117 115 106 88 62 61 68 84 86 59 34 11 9 14 357 343 325 294
Height
1415 1415 1415 1414 1415 1415 1415 1415 1415 1411 1408 1409 1410 1411 1412 1413 1414 1415 1415 1415 1416 1417 1418 1418 1419 1420 1420 1420 1421 1421 1422 1422 1423 1423 1424 1425 1427 1429
1408 1408 1407 1407 1407 1407 1407 1407 1407 1406 1402 1401 1403 1404 1405 1406 1407 1408 1408 1408 1409 1409 1410 1411 1411 1411 1412 1412 1412 1413 1413 1414 1414 1415 1415 1416 1417 1419
1400 1400 1400 1400 1399 1399 1400 1399 1399 1399 1396 1394 1397 1397 1398 1399 1399 1400 1401 1401 1401 1402 1402 1403 1403 1403 1403 1404 1404 1404 1405 1406 1406 1406 1406 1407 1409 1411
1393 1393 1392 1393 1392 1392 1392 1391 1391 1391 1391 1389 1389 1390 1391 1391 1392 1392 1393 1393 1394 1394 1395 1395 1395 1395 1395 1396 1396 1397 1397 1398 1398 1398 1398 1399 1401 1402
1386 1386 1385 1385 1385 1385 1384 1384 1384 1384 1384 1383 1382 1383 1383 1384 1385 1385 1386 1386 1386 1387 1387 1387 1387 1387 1388 1388 1388 1389 1390 1390 1390 1390 1390 1391 1393 1394
1379 1379 1378 1378 1378 1378 1377 1377 1377 1377 1377 1377 1376 1376 1376 1377 1377 1377 1377 1378 1378 1379 1379 1379 1380 1380 1380 1381 1381 1381 1382 1383 1383 1384 1383 1384 1385 1387
1372 1371 1371 1371 1371 1371 1371 1370 1370 1370 1370 1370 1369 1369 1368 1369 1369 1370 1370 1370 1370 1371 1371 1372 1373 1372 1373 1373 1374 1374 1375 1376 1377 1377 1377 1377 1379 1380
1365 1364 1363 1363 1363 1363 1363 1363 1363 1363 1363 1363 1362 1362 1361 1362 1363 1363 1363 1363 1362 1364 1365 1364 1366 1365 1366 1366 1367 1368 1369 1369 1370 1371 1371 1371 1372 1373
1358 1357 1356 1356 1356 1355 1355 1355 1356 1356 1357 1357 1355 1355 1355 1356 1357 1357 1356 1356 1356 1357 1358 1357 1358 1358 1359 1360 1361 1362 1362 1363 1364 1364 1365 1366 1366 1367
1352 1351 1350 1348 1348 1348 1347 1347 1347 1348 1349 1350 1349 1349 1350 1350 1350 1351 1350 1350 1350 1351 1352 1352 1351 1352 1353 1354 1355 1356 1357 1357 1358 1359 1359 1360 1361 1362
1346 1345 1343 1342 1341 1342 1341 1340 1340 1340 1342 1343 1343 1343 1343 1344 1345 1345 1344 1344 1343 1344 1346 1346 1346 1346 1347 1348 1349 1350 1351 1352 1352 1353 1354 1355 1356 1357
1340 1338 1337 1336 1336 1335 1335 1334 1333 1333 1335 1335 1336 1336 1337 1337 1338 1339 1339 1339 1338 1338 1339 1341 1341 1342 1342 1343 1344 1345 1346 1347 1347 1348 1349 1350 1351 1352
1334 1332 1331 1331 1330 1330 1329 1329 1328 1329 1329 1329 1329 1330 1330 1331 1332 1333 1333 1334 1334 1333 1335 1336 1336 1337 1338 1338 1339 1340 1341 1342 1343 1344 1344 1346 1347 1348
1329 1328 1326 1325 1324 1324 1324 1323 1323 1324 1324 1323 1324 1324 1325 1325 1326 1327 1328 1328 1329 1329 1330 1331 1332 1332 1333 1334 1335 1335 1337 1338 1338 1339 1341 1342 1343 1344
1325 1324 1322 1321 1320 1319 1318 1318 1318 1318 1318 1319 1319 1319 1320 1321 1322 1322 1323 1324 1324 1325 1325 1327 1327 1328 1329 1330 1330 1331 1332 1334 1335 1336 1337 1338 1339 1340
1321 1320 1318 1317 1316 1315 1314 1313 1314 1314 1314 1315 1315 1316 1317 1317 1318 1319 1319 1320 1320 1320 1322 1322 1323 1324 1325 1326 1327 1327 1328 1330 1331 1332 1333 1334 1335 1336
1318 1316 1314 1313 1312 1311 1310 1310 1310 1310 1311 1311 1312 1313 1314 1314 1315 1316 1316 1317 1318 1318 1318 1319 1320 1321 1322 1323 1324 1324 1325 1326 1327 1329 1329 1330 1331 1332
1315 1313 1312 1311 1310 1309 1308 1308 1308 1308 1308 1309 1309 1310 1311 1312 1312 1313 1314 1315 1315 1316 1316 1317 1318 1318 1319 1320 1322 1322 1322 1323 1324 1326 1326 1327 1327 1328
1312 1311 1310 1309 1308 1307 1306 1306 1306 1306 1306 1307 1307 1308 1309 1310 1311 1312 1312 1313 1314 1315 1315 1316 1317 1317 1317 1318 1319 1321 1321 1321 1322 1323 1323 1323 1324 1325
1310 1309 1308 1308 1307 1306 1305 1305 1304 1304 1305 1305 1306 1307 1307 1308 1309 1310 1311 1312 1313 1313 1314 1315 1316 1316 1317 1318 1318 1319 1320 1319 1320 1320 1321 1321 1322 1323
1309 1308 1307 1306 1306 1305 1304 1304 1303 1303 1304 1304 1304 1305 1306 1307 1307 1308 1310 1311 1312 1313 1313 1314 1315 1316 1317 1317 1317 1317 1318 1319 1319 1318 1319 1319 1319 1319
1308 1307 1306 1305 1305 1304 1303 1303 1302 1302 1302 1303 1303 1304 1305 1306 1307 1307 1309 1310 1311 1312 1313 1314 1315 1315 1316 1316 1316 1317 1317 1318 1318 1319 1319 1319 1318 1317
1308 1307 1305 1304 1304 1303 1302 1302 1302 1301 1302 1302 1303 1303 1304 1305 1306 1307 1308 1309 1310 1311 1312 1313 1314 1315 1315 1316 1316 1317 1317 1317 1318 1318 1318 1318 1318 1318